Atka, AK

2:13 PM HST on November 21, 2017 (GMT -1000)
Atka

Weather History for PAAK - October, 2013

Change the Weather History Date:

Wednesday, October 23, 2013

  Actual Average (PADK) Record (PADK)
Temperature  
Mean Temperature 40 °F -  
Max Temperature 42 °F 45 °F 57 °F (1989)
Min Temperature 37 °F 35 °F 28 °F (2002)
Degree Days  
Heating Degree Days 26    
Moisture  
Dew Point 34 °F    
Average Humidity 81    
Maximum Humidity 93    
Minimum Humidity 70    
Precipitation  
Precipitation 0.00 in - - ()
Sea Level Pressure  
Sea Level Pressure 29.14 in    
Wind  
Wind Speed 18 mph (WNW)    
Max Wind Speed 31 mph    
Max Gust Speed 39 mph    
Visibility 8 miles    
Events      
Averages and records for this station are not official NWS values.
T = Trace of Precipitation, MM = Missing Value Source: NWS Daily Summary

Daily Weather History Graph

Daily Weather History Graph

Search for Another Location

Airport or City:

Trip Planner

Search our weather history database for the weather conditions in past years. The results will help you decide how hot, cold, wet, or windy it might be!

Date:

Astronomy

Oct. 23, 2013 Rise Set
Actual Time 9:17 AM HDT 7:24 PM HDT
Civil Twilight 8:42 AM HDT 7:59 PM HDT
Nautical Twilight 8:02 AM HDT 8:38 PM HDT
Astronomical Twilight 7:23 AM HDT 9:17 PM HDT
Moon 10:48 PM HDT (10/23) 2:04 PM HDT (10/23)
Length of Visible Light 11h 17m
Length of Day
10h 07m
Waning Gibbous, 78% of the Moon is Illuminated
Oct 23
Waning Gibbous
Oct 26
Last Quarter
Nov 3
New
Nov 9
First Quarter
Nov 17
Full

Hourly Weather History & Observations

Time (HDT) Temp. Windchill Dew Point Humidity Pressure Visibility Wind Dir Wind Speed Gust Speed Precip Events Conditions
12:16 AM 37.4 °F 27.5 °F 28.4 °F 70% 29.40 in 10.0 mi NW 18.4 mph 24.2 mph N/A   Mostly Cloudy
12:36 AM 37.4 °F 27.2 °F 30.2 °F 75% 29.40 in 6.0 mi NW 19.6 mph 28.8 mph N/A   Overcast
12:56 AM 37.4 °F 26.1 °F 30.2 °F 75% 29.38 in 10.0 mi WNW 24.2 mph 29.9 mph N/A   Overcast
1:16 AM 37.4 °F 27.8 °F 30.2 °F 75% 29.38 in 10.0 mi WNW 17.3 mph 21.9 mph N/A   Overcast
1:36 AM 37.4 °F 29.3 °F 32.0 °F 81% 29.37 in 10.0 mi WNW 12.7 mph 26.5 mph N/A   Mostly Cloudy
1:56 AM 37.4 °F 27.8 °F 32.0 °F 81% 29.35 in 10.0 mi WNW 17.3 mph - N/A   Overcast
2:16 AM 37.4 °F 27.5 °F 32.0 °F 81% 29.35 in 10.0 mi West 18.4 mph - N/A   Mostly Cloudy
2:36 AM 37.4 °F 26.1 °F 28.4 °F 70% 29.34 in 8.0 mi WNW 24.2 mph 39.1 mph N/A   Mostly Cloudy
2:56 AM 39.2 °F 30.5 °F 30.2 °F 70% 29.34 in 10.0 mi NW 16.1 mph - N/A   Overcast
3:16 AM 37.4 °F 28.5 °F 30.2 °F 75% 29.33 in 10.0 mi NW 15.0 mph 23.0 mph N/A   Mostly Cloudy
3:36 AM 37.4 °F 28.2 °F 30.2 °F 75% 29.32 in 8.0 mi WNW 16.1 mph 33.4 mph N/A   Mostly Cloudy
3:56 AM 39.2 °F 29.3 °F 32.0 °F 75% 29.31 in 10.0 mi WNW 20.7 mph 29.9 mph N/A   Mostly Cloudy
4:16 AM 39.2 °F 29.6 °F 33.8 °F 81% 29.30 in 10.0 mi West 19.6 mph 26.5 mph N/A   Overcast
4:36 AM 37.4 °F 27.2 °F 30.2 °F 75% 29.29 in 4.0 mi West 19.6 mph 32.2 mph N/A   Overcast
4:56 AM 39.2 °F 30.2 °F 33.8 °F 81% 29.28 in 9.0 mi WNW 17.3 mph 27.6 mph N/A   Overcast
5:16 AM 39.2 °F 27.2 °F 32.0 °F 75% 29.26 in 10.0 mi WNW 31.1 mph 36.8 mph N/A   Overcast
5:36 AM 39.2 °F 28.7 °F 33.8 °F 81% 29.25 in 10.0 mi West 23.0 mph 28.8 mph N/A   Overcast
5:56 AM 39.2 °F 29.0 °F 33.8 °F 81% 29.25 in 10.0 mi WNW 21.9 mph 29.9 mph N/A   Mostly Cloudy
6:16 AM 39.2 °F 29.0 °F 33.8 °F 81% 29.24 in 10.0 mi West 21.9 mph 27.6 mph N/A   Overcast
6:36 AM 39.2 °F 28.7 °F 33.8 °F 81% 29.23 in 9.0 mi WNW 23.0 mph 27.6 mph N/A   Overcast
6:56 AM 39.2 °F 28.7 °F 33.8 °F 81% 29.22 in 10.0 mi West 23.0 mph 31.1 mph N/A   Overcast
7:16 AM 39.2 °F 29.6 °F 35.6 °F 87% 29.22 in 10.0 mi West 19.6 mph 27.6 mph N/A   Overcast
7:36 AM 41.0 °F 31.4 °F 35.6 °F 81% 29.21 in 10.0 mi WNW 21.9 mph 31.1 mph N/A   Overcast
7:56 AM 39.2 °F 29.6 °F 33.8 °F 81% 29.20 in 10.0 mi WNW 19.6 mph 33.4 mph N/A   Overcast
8:16 AM 39.2 °F 30.2 °F 35.6 °F 87% 29.19 in 10.0 mi West 17.3 mph - N/A   Overcast
8:36 AM 37.4 °F 27.5 °F 33.8 °F 87% 29.19 in 3.0 mi WNW 18.4 mph 31.1 mph N/A   Overcast
8:56 AM 37.4 °F 28.2 °F 33.8 °F 87% 29.18 in 3.0 mi NW 16.1 mph 26.5 mph N/A   Overcast
9:16 AM 37.4 °F 28.9 °F 33.8 °F 87% 29.19 in 3.0 mi WNW 13.8 mph 24.2 mph N/A   Overcast
9:36 AM 37.4 °F 28.9 °F 35.6 °F 93% 29.18 in 5.0 mi NNW 13.8 mph 21.9 mph N/A   Overcast
9:56 AM 37.4 °F 28.9 °F 33.8 °F 87% 29.18 in 1.5 mi NW 13.8 mph - N/A   Overcast
10:16 AM 37.4 °F 28.9 °F 35.6 °F 93% 29.17 in 4.0 mi WNW 13.8 mph 19.6 mph N/A   Overcast
10:36 AM 39.2 °F 29.3 °F 35.6 °F 87% 29.16 in 9.0 mi WNW 20.7 mph 27.6 mph N/A   Overcast
10:56 AM 41.0 °F 31.4 °F 37.4 °F 87% 29.16 in 10.0 mi WNW 21.9 mph 27.6 mph N/A   Overcast
11:16 AM 41.0 °F 32.2 °F 35.6 °F 81% 29.15 in 10.0 mi West 18.4 mph 24.2 mph N/A   Overcast
11:36 AM 41.0 °F 31.6 °F 35.6 °F 81% 29.14 in 10.0 mi West 20.7 mph 28.8 mph N/A   Overcast
11:56 AM 41.0 °F 31.1 °F 35.6 °F 81% 29.13 in 10.0 mi West 23.0 mph 33.4 mph N/A   Overcast
12:16 PM 42.8 °F 34.5 °F 35.6 °F 76% 29.13 in 8.0 mi WNW 18.4 mph 26.5 mph N/A   Overcast
12:36 PM 41.0 °F 31.4 °F 37.4 °F 87% 29.12 in 5.0 mi West 21.9 mph 27.6 mph N/A   Mostly Cloudy
12:56 PM 42.8 °F 35.1 °F 35.6 °F 76% 29.12 in 8.0 mi West 16.1 mph 27.6 mph N/A   Overcast
1:16 PM 42.8 °F 34.5 °F 37.4 °F 81% 29.11 in 10.0 mi West 18.4 mph 27.6 mph N/A   Overcast
1:36 PM 42.8 °F 34.8 °F 35.6 °F 76% 29.10 in 8.0 mi West 17.3 mph 23.0 mph N/A   Overcast
1:56 PM 42.8 °F 34.8 °F 37.4 °F 81% 29.09 in 10.0 mi West 17.3 mph 25.3 mph N/A   Mostly Cloudy
2:16 PM 41.0 °F 32.2 °F 35.6 °F 81% 29.08 in 4.0 mi West 18.4 mph 24.2 mph N/A   Mostly Cloudy
2:36 PM 42.8 °F 35.4 °F 37.4 °F 81% 29.07 in 8.0 mi West 15.0 mph 23.0 mph N/A   Overcast
2:56 PM 42.8 °F 35.8 °F 37.4 °F 81% 29.05 in 10.0 mi West 13.8 mph - N/A   Overcast
3:16 PM 42.8 °F 36.2 °F 37.4 °F 81% 29.04 in 9.0 mi West 12.7 mph 18.4 mph N/A   Overcast
3:36 PM 42.8 °F 35.1 °F 35.6 °F 76% 29.03 in 10.0 mi West 16.1 mph - N/A   Overcast
3:56 PM 42.8 °F 37.0 °F 35.6 °F 76% 29.02 in 10.0 mi West 10.4 mph - N/A   Overcast
4:16 PM 42.8 °F 34.8 °F 35.6 °F 76% 29.02 in 6.0 mi West 17.3 mph 20.7 mph N/A   Mostly Cloudy
4:36 PM 42.8 °F 35.1 °F 35.6 °F 76% 29.01 in 10.0 mi West 16.1 mph 21.9 mph N/A   Overcast
4:56 PM 42.8 °F 35.8 °F 37.4 °F 81% 29.01 in 5.0 mi WNW 13.8 mph - N/A   Overcast
5:16 PM 42.8 °F 35.1 °F 37.4 °F 81% 29.01 in 5.0 mi WNW 16.1 mph - N/A   Overcast
5:36 PM 42.8 °F 35.8 °F 37.4 °F 81% 29.01 in 5.0 mi NW 13.8 mph 21.9 mph N/A   Overcast
5:56 PM 41.0 °F 33.1 °F 35.6 °F 81% 29.00 in 6.0 mi WNW 15.0 mph - N/A   Overcast
6:16 PM 41.0 °F 32.2 °F 35.6 °F 81% 29.00 in 10.0 mi WNW 18.4 mph - N/A   Overcast
6:36 PM 41.0 °F 32.5 °F 35.6 °F 81% 29.00 in 10.0 mi WNW 17.3 mph - N/A   Overcast
6:56 PM 41.0 °F 34.7 °F 33.8 °F 76% 29.00 in 10.0 mi WNW 10.4 mph - N/A   Overcast
7:16 PM 41.0 °F 34.7 °F 33.8 °F 76% 29.00 in 10.0 mi WNW 10.4 mph - N/A   Overcast
7:36 PM 41.0 °F 35.2 °F 33.8 °F 76% 29.00 in 10.0 mi WNW 9.2 mph - N/A   Overcast
7:56 PM 39.2 °F 31.2 °F 33.8 °F 81% 29.00 in 8.0 mi West 13.8 mph - N/A   Mostly Cloudy
8:16 PM 39.2 °F 33.0 °F 35.6 °F 87% 29.00 in 10.0 mi WNW 9.2 mph - N/A   Overcast
8:36 PM 39.2 °F 35.0 °F 33.8 °F 81% 29.00 in 10.0 mi WNW 5.8 mph - N/A   Overcast
8:56 PM 39.2 °F 35.0 °F 35.6 °F 87% 29.00 in 10.0 mi NW 5.8 mph - N/A   Overcast
9:16 PM 39.2 °F 34.2 °F 35.6 °F 87% 29.00 in 5.0 mi WNW 6.9 mph - N/A   Mostly Cloudy
9:36 PM 39.2 °F 33.6 °F 33.8 °F 81% 29.01 in 4.0 mi NW 8.1 mph - N/A   Overcast
9:56 PM 37.4 °F 32.8 °F 33.8 °F 87% 29.01 in 7.0 mi WNW 5.8 mph - N/A   Overcast
10:16 PM 39.2 °F 31.6 °F 33.8 °F 81% 29.01 in 10.0 mi West 12.7 mph - N/A   Overcast
10:36 PM 39.2 °F 31.6 °F 33.8 °F 81% 29.02 in 7.0 mi West 12.7 mph - N/A   Overcast
10:56 PM 39.2 °F 30.5 °F 35.6 °F 87% 29.01 in 6.0 mi West 16.1 mph 20.7 mph N/A   Overcast
11:16 PM 39.2 °F 30.8 °F 35.6 °F 87% 29.02 in 10.0 mi WNW 15.0 mph - N/A   Mostly Cloudy
11:36 PM 39.2 °F 30.2 °F 33.8 °F 81% 29.02 in 8.0 mi West 17.3 mph - N/A   Overcast
11:56 PM 39.2 °F 30.8 °F 33.8 °F 81% 29.03 in 10.0 mi West 15.0 mph - N/A   Overcast